DW7572 Weather Reports


time (UTC)temp
C
wind
direction
speed
KPH
gust
KPH
rain 1hr
cm
rain 24hr
cm
rain mn
cm
humidity
%
barometer
mb
20260508140037 13 225 8.0 17.7 0.00 0.00 0.00 44 1008.5
20260508133016 12 225 8.0 19.3 0.00 0.00 0.00 45 1008.6
20260508130017 10 203 11.3 20.9 0.00 0.00 0.00 52 1008.4
20260508123016 7 203 8.0 14.5 0.00 0.00 0.00 56 1008.6
20260508120017 6 203 6.4 14.5 0.00 0.00 0.00 60 1008.3
20260508113017 6 203 9.7 14.5 0.00 0.00 0.00 55 1008.2
20260508110016 6 203 11.3 14.5 0.00 0.00 0.00 53 1008.3
20260508103016 6 203 11.3 16.1 0.00 0.00 0.00 53 1008.3
20260508100017 5 203 9.7 16.1 0.00 0.00 0.00 54 1008.3
20260508093017 5 203 9.7 14.5 0.00 0.00 0.00 53 1008.6
20260508090016 6 203 9.7 14.5 0.00 0.00 0.00 52 1008.7
20260508083017 5 203 6.4 12.9 0.00 0.00 0.00 55 1008.8
20260508080016 5 203 4.8 9.7 0.00 0.00 0.00 55 1008.8
20260508073016 5 203 3.2 8.0 0.00 0.00 0.00 57 1009.1
20260508070016 6 203 6.4 9.7 0.00 0.00 0.00 54 1009.4
20260508063036 6 203 4.8 9.7 0.00 0.00 0.00 53 1009.5
20260508060036 7 203 6.4 9.7 0.00 0.00 0.00 52 1009.7
20260508053036 7 0 6.4 11.3 0.00 0.00 0.00 47 1009.9
20260508050016 8 0 3.2 6.4 0.00 0.00 0.00 46 1010.0
20260508043037 9 0 1.6 4.8 0.00 0.00 0.00 43 1010.3
20260508040017 10 0.0 3.2 0.00 0.00 0.00 40 1010.5
20260508033017 11 0 4.8 6.4 0.00 0.00 0.00 36 1010.6
20260508030017 11 0 4.8 8.0 0.00 0.00 0.00 35 1010.5
20260508023017 12 0 4.8 6.4 0.00 0.00 0.00 34 1010.5
20260508020018 13 0 6.4 12.9 0.00 0.00 0.00 31 1010.2
20260508013017 14 0 9.7 14.5 0.00 0.00 0.00 29 1009.9
20260508010017 15 338 11.3 20.9 0.00 0.00 0.00 27 1009.9
20260508003017 16 315 12.9 22.5 0.00 0.00 0.00 25 1009.6
20260508000016 16 315 17.7 32.2 0.00 0.00 0.00 25 1009.7
20260507233037 17 293 12.9 30.6 0.00 0.00 0.00 24 1009.9
20260507230015 17 315 17.7 37.0 0.00 0.00 0.00 23 1010.1
20260507223016 16 315 16.1 38.6 0.00 0.00 0.00 25 1010.2
20260507220015 17 315 14.5 33.8 0.00 0.00 0.00 26 1010.5
20260507213015 16 338 17.7 33.8 0.00 0.00 0.00 24 1010.8
20260507210015 16 315 17.7 37.0 0.00 0.00 0.00 25 1011.0
20260507203018 16 315 14.5 32.2 0.00 0.00 0.00 25 1011.1
20260507200017 15 315 17.7 37.0 0.00 0.00 0.00 29 1011.6
20260507193018 15 315 14.5 37.0 0.00 0.00 0.00 28 1011.8
20260507190018 14 315 17.7 30.6 0.00 0.00 0.00 29 1011.8
20260507183018 13 315 12.9 41.8 0.00 0.00 0.00 30 1012.2
20260507180018 13 23 12.9 30.6 0.00 0.00 0.00 32 1012.4
20260507173017 12 45 11.3 29.0 0.00 0.00 0.00 31 1012.5
20260507170018 12 23 11.3 41.8 0.00 0.00 0.00 33 1012.8
20260507163017 11 68 9.7 22.5 0.00 0.00 0.00 36 1013.0
20260507160038 11 68 12.9 22.5 0.00 0.00 0.00 38 1013.2
20260507153017 10 0 9.7 19.3 0.00 0.00 0.00 40 1013.2
20260507150017 10 90 8.0 20.9 0.00 0.00 0.00 45 1013.1